Time,TemperatureF,DewpointF,PressureIn,WindDirection,WindDirectionDegrees,WindSpeedMPH,WindSpeedGustMPH,Humidity,HourlyPrecipIn,Conditions,Clouds,dailyrainin,SoftwareType,DateUTC
2013-06-10 00:03:00,53.0,-99.9,-100.00,NE,45,14.0,24.0,-999,-99.99,,,-99.99,,2013-06-10 07:03:00,
2013-06-10 00:12:00,53.0,-99.9,-100.00,NE,45,14.0,24.0,-999,-99.99,,,-99.99,,2013-06-10 07:12:00,
2013-06-10 00:22:00,53.0,-99.9,-100.00,NE,45,10.0,24.0,-999,-99.99,,,-99.99,,2013-06-10 07:22:00,
2013-06-10 00:32:00,53.0,-99.9,-100.00,NE,45,9.0,24.0,-999,-99.99,,,-99.99,,2013-06-10 07:32:00,
2013-06-10 00:42:00,53.0,-99.9,-100.00,NE,45,9.0,24.0,-999,-99.99,,,-99.99,,2013-06-10 07:42:00,
2013-06-10 00:52:00,53.0,-99.9,-100.00,NE,45,13.0,24.0,-999,-99.99,,,-99.99,,2013-06-10 07:52:00,
2013-06-10 01:02:00,53.0,-99.9,-100.00,NE,45,11.0,21.0,-999,-99.99,,,-99.99,,2013-06-10 08:02:00,
2013-06-10 01:12:00,53.0,-99.9,-100.00,NE,45,11.0,21.0,-999,-99.99,,,-99.99,,2013-06-10 08:12:00,
2013-06-10 01:22:00,53.0,-99.9,-100.00,NE,45,12.0,21.0,-999,-99.99,,,-99.99,,2013-06-10 08:22:00,
2013-06-10 01:32:00,53.0,-99.9,-100.00,NE,45,12.0,21.0,-999,-99.99,,,-99.99,,2013-06-10 08:32:00,
2013-06-10 01:42:00,53.0,-99.9,-100.00,NE,45,12.0,21.0,-999,-99.99,,,-99.99,,2013-06-10 08:42:00,
2013-06-10 01:52:00,53.0,-99.9,-100.00,NE,45,14.0,22.0,-999,-99.99,,,-99.99,,2013-06-10 08:52:00,
2013-06-10 02:02:00,52.0,-99.9,-100.00,NE,45,16.0,24.0,-999,-99.99,,,-99.99,,2013-06-10 09:02:00,
2013-06-10 02:12:00,52.0,-99.9,-100.00,NE,45,16.0,24.0,-999,-99.99,,,-99.99,,2013-06-10 09:12:00,
2013-06-10 02:22:00,52.0,-99.9,-100.00,NE,45,17.0,24.0,-999,-99.99,,,-99.99,,2013-06-10 09:22:00,
2013-06-10 02:32:00,52.0,-99.9,-100.00,NE,45,14.0,24.0,-999,-99.99,,,-99.99,,2013-06-10 09:32:00,
2013-06-10 02:43:00,52.0,-99.9,-100.00,NE,45,14.0,24.0,-999,-99.99,,,-99.99,,2013-06-10 09:43:00,
2013-06-10 02:54:00,52.0,-99.9,-100.00,NE,45,16.0,24.0,-999,-99.99,,,-99.99,,2013-06-10 09:54:00,
2013-06-10 03:03:00,52.0,-99.9,-100.00,NE,45,14.0,23.0,-999,-99.99,,,-99.99,,2013-06-10 10:03:00,
2013-06-10 03:13:00,52.0,-99.9,-100.00,NE,45,14.0,23.0,-999,-99.99,,,-99.99,,2013-06-10 10:13:00,
2013-06-10 03:23:00,52.0,-99.9,-100.00,NE,45,13.0,23.0,-999,-99.99,,,-99.99,,2013-06-10 10:23:00,
2013-06-10 03:33:00,52.0,-99.9,-100.00,NE,45,16.0,22.0,-999,-99.99,,,-99.99,,2013-06-10 10:33:00,
2013-06-10 03:42:00,52.0,-99.9,-100.00,NE,45,16.0,22.0,-999,-99.99,,,-99.99,,2013-06-10 10:42:00,
2013-06-10 03:52:00,52.0,-99.9,-100.00,NE,45,13.0,22.0,-999,-99.99,,,-99.99,,2013-06-10 10:52:00,
2013-06-10 04:03:00,52.0,-99.9,-100.00,NE,45,11.0,19.0,-999,-99.99,,,-99.99,,2013-06-10 11:03:00,
2013-06-10 04:12:00,52.0,-99.9,-100.00,NE,45,11.0,19.0,-999,-99.99,,,-99.99,,2013-06-10 11:12:00,
2013-06-10 04:22:00,51.0,-99.9,-100.00,NE,45,10.0,18.0,-999,-99.99,,,-99.99,,2013-06-10 11:22:00,
2013-06-10 04:32:00,51.0,-99.9,-100.00,NE,45,6.0,17.0,-999,-99.99,,,-99.99,,2013-06-10 11:32:00,
2013-06-10 04:42:00,51.0,-99.9,-100.00,NE,45,6.0,17.0,-999,-99.99,,,-99.99,,2013-06-10 11:42:00,
2013-06-10 04:52:00,51.0,-99.9,-100.00,NE,45,9.0,14.0,-999,-99.99,,,-99.99,,2013-06-10 11:52:00,
2013-06-10 05:02:00,51.0,-99.9,-100.00,NE,45,8.0,14.0,-999,-99.99,,,-99.99,,2013-06-10 12:02:00,
2013-06-10 05:12:00,51.0,-99.9,-100.00,NE,45,8.0,14.0,-999,-99.99,,,-99.99,,2013-06-10 12:12:00,
2013-06-10 05:22:00,51.0,-99.9,-100.00,NE,45,8.0,12.0,-999,-99.99,,,-99.99,,2013-06-10 12:22:00,
2013-06-10 05:33:00,51.0,-99.9,-100.00,NE,45,4.0,12.0,-999,-99.99,,,-99.99,,2013-06-10 12:33:00,
2013-06-10 05:42:00,51.0,-99.9,-100.00,NE,45,4.0,12.0,-999,-99.99,,,-99.99,,2013-06-10 12:42:00,
2013-06-10 05:52:00,51.0,-99.9,-100.00,East,90,6.0,12.0,-999,-99.99,,,-99.99,,2013-06-10 12:52:00,
2013-06-10 06:02:00,51.0,-99.9,-100.00,East,90,1.0,11.0,-999,-99.99,,,-99.99,,2013-06-10 13:02:00,
2013-06-10 06:12:00,51.0,-99.9,-100.00,East,90,1.0,11.0,-999,-99.99,,,-99.99,,2013-06-10 13:12:00,
2013-06-10 06:22:00,52.0,-99.9,-100.00,NE,45,7.0,9.0,-999,-99.99,,,-99.99,,2013-06-10 13:22:00,
2013-06-10 06:32:00,53.0,-99.9,-100.00,SE,135,0.0,9.0,-999,-99.99,,,-99.99,,2013-06-10 13:32:00,
2013-06-10 06:43:00,53.0,-99.9,-100.00,SE,135,0.0,9.0,-999,-99.99,,,-99.99,,2013-06-10 13:43:00,
2013-06-10 06:52:00,52.0,-99.9,-100.00,SE,135,2.0,8.0,-999,-99.99,,,-99.99,,2013-06-10 13:52:00,
2013-06-10 07:02:00,52.0,-99.9,-100.00,SE,135,0.0,4.0,-999,-99.99,,,-99.99,,2013-06-10 14:02:00,
2013-06-10 07:13:00,52.0,-99.9,-100.00,SE,135,0.0,4.0,-999,-99.99,,,-99.99,,2013-06-10 14:13:00,
2013-06-10 07:22:00,54.0,-99.9,-100.00,SW,225,0.0,3.0,-999,-99.99,,,-99.99,,2013-06-10 14:22:00,
2013-06-10 07:32:00,54.0,-99.9,-100.00,SW,225,0.0,3.0,-999,-99.99,,,-99.99,,2013-06-10 14:32:00,
2013-06-10 07:42:00,54.0,-99.9,-100.00,SW,225,0.0,3.0,-999,-99.99,,,-99.99,,2013-06-10 14:42:00,
2013-06-10 07:52:00,55.0,-99.9,-100.00,NE,45,5.0,8.0,-999,-99.99,,,-99.99,,2013-06-10 14:52:00,
2013-06-10 08:03:00,56.0,-99.9,-100.00,NE,45,7.0,9.0,-999,-99.99,,,-99.99,,2013-06-10 15:03:00,
2013-06-10 08:13:00,56.0,-99.9,-100.00,NE,45,7.0,9.0,-999,-99.99,,,-99.99,,2013-06-10 15:13:00,
2013-06-10 08:22:00,56.0,-99.9,-100.00,NE,45,7.0,11.0,-999,-99.99,,,-99.99,,2013-06-10 15:22:00,
2013-06-10 08:33:00,56.0,-99.9,-100.00,NE,45,6.0,13.0,-999,-99.99,,,-99.99,,2013-06-10 15:33:00,
2013-06-10 08:43:00,56.0,-99.9,-100.00,NE,45,6.0,13.0,-999,-99.99,,,-99.99,,2013-06-10 15:43:00,
2013-06-10 08:53:00,55.0,-99.9,-100.00,NE,45,11.0,15.0,-999,-99.99,,,-99.99,,2013-06-10 15:53:00,
2013-06-10 09:03:00,54.0,-99.9,-100.00,NE,45,9.0,19.0,-999,-99.99,,,-99.99,,2013-06-10 16:03:00,
2013-06-10 09:13:00,54.0,-99.9,-100.00,NE,45,9.0,19.0,-999,-99.99,,,-99.99,,2013-06-10 16:13:00,
2013-06-10 09:23:00,55.0,-99.9,-100.00,NE,45,12.0,19.0,-999,-99.99,,,-99.99,,2013-06-10 16:23:00,
2013-06-10 09:33:00,54.0,-99.9,-100.00,NE,45,12.0,17.0,-999,-99.99,,,-99.99,,2013-06-10 16:33:00,
2013-06-10 09:43:00,54.0,-99.9,-100.00,NE,45,12.0,17.0,-999,-99.99,,,-99.99,,2013-06-10 16:43:00,
2013-06-10 09:53:00,57.0,-99.9,-100.00,NE,45,13.0,19.0,-999,-99.99,,,-99.99,,2013-06-10 16:53:00,
2013-06-10 10:03:00,56.0,-99.9,-100.00,NE,45,14.0,21.0,-999,-99.99,,,-99.99,,2013-06-10 17:03:00,
2013-06-10 10:14:00,56.0,-99.9,-100.00,NE,45,14.0,21.0,-999,-99.99,,,-99.99,,2013-06-10 17:14:00,
2013-06-10 10:27:00,56.0,-99.9,-100.00,NE,45,11.0,21.0,-999,-99.99,,,-99.99,,2013-06-10 17:27:00,
2013-06-10 10:38:00,57.0,-99.9,-100.00,NE,45,16.0,20.0,-999,-99.99,,,-99.99,,2013-06-10 17:38:00,
2013-06-10 10:48:00,57.0,-99.9,-100.00,NE,45,16.0,20.0,-999,-99.99,,,-99.99,,2013-06-10 17:48:00,
2013-06-10 10:58:00,57.0,-99.9,-100.00,NE,45,14.0,21.0,-999,-99.99,,,-99.99,,2013-06-10 17:58:00,
2013-06-10 11:08:00,57.0,-99.9,-100.00,NE,45,12.0,22.0,-999,-99.99,,,-99.99,,2013-06-10 18:08:00,
2013-06-10 11:14:00,57.0,-99.9,-100.00,NE,45,12.0,22.0,-999,-99.99,,,-99.99,,2013-06-10 18:14:00,
2013-06-10 11:25:00,57.0,-99.9,-100.00,NE,45,19.0,23.0,-999,-99.99,,,-99.99,,2013-06-10 18:25:00,
2013-06-10 11:35:00,57.0,-99.9,-100.00,NE,45,16.0,24.0,-999,-99.99,,,-99.99,,2013-06-10 18:35:00,
2013-06-10 11:48:00,57.0,-99.9,-100.00,NE,45,16.0,24.0,-999,-99.99,,,-99.99,,2013-06-10 18:48:00,
2013-06-10 11:55:00,57.0,-99.9,-100.00,NE,45,16.0,24.0,-999,-99.99,,,-99.99,,2013-06-10 18:55:00,
2013-06-10 12:03:00,58.0,-99.9,-100.00,NE,45,17.0,24.0,-999,-99.99,,,-99.99,,2013-06-10 19:03:00,
2013-06-10 12:13:00,58.0,-99.9,-100.00,NE,45,17.0,24.0,-999,-99.99,,,-99.99,,2013-06-10 19:13:00,
2013-06-10 12:23:00,58.0,-99.9,-100.00,NE,45,19.0,24.0,-999,-99.99,,,-99.99,,2013-06-10 19:23:00,
2013-06-10 12:33:00,58.0,-99.9,-100.00,NE,45,19.0,26.0,-999,-99.99,,,-99.99,,2013-06-10 19:33:00,
2013-06-10 12:43:00,58.0,-99.9,-100.00,NE,45,19.0,26.0,-999,-99.99,,,-99.99,,2013-06-10 19:43:00,
2013-06-10 12:53:00,58.0,-99.9,-100.00,NE,45,21.0,26.0,-999,-99.99,,,-99.99,,2013-06-10 19:53:00,
2013-06-10 13:03:00,58.0,-99.9,-100.00,NE,45,18.0,26.0,-999,-99.99,,,-99.99,,2013-06-10 20:03:00,
2013-06-10 13:13:00,58.0,-99.9,-100.00,NE,45,18.0,26.0,-999,-99.99,,,-99.99,,2013-06-10 20:13:00,
2013-06-10 13:23:00,59.0,-99.9,-100.00,NE,45,20.0,27.0,-999,-99.99,,,-99.99,,2013-06-10 20:23:00,
2013-06-10 13:32:00,59.0,-99.9,-100.00,NE,45,16.0,27.0,-999,-99.99,,,-99.99,,2013-06-10 20:32:00,
2013-06-10 13:43:00,59.0,-99.9,-100.00,NE,45,16.0,27.0,-999,-99.99,,,-99.99,,2013-06-10 20:43:00,
2013-06-10 13:53:00,59.0,-99.9,-100.00,NE,45,18.0,26.0,-999,-99.99,,,-99.99,,2013-06-10 20:53:00,
2013-06-10 14:02:00,59.0,-99.9,-100.00,NE,45,20.0,25.0,-999,-99.99,,,-99.99,,2013-06-10 21:02:00,
2013-06-10 14:13:00,59.0,-99.9,-100.00,NE,45,20.0,25.0,-999,-99.99,,,-99.99,,2013-06-10 21:13:00,
2013-06-10 14:23:00,59.0,-99.9,-100.00,NE,45,17.0,26.0,-999,-99.99,,,-99.99,,2013-06-10 21:23:00,
2013-06-10 14:34:00,59.0,-99.9,-100.00,NE,45,17.0,26.0,-999,-99.99,,,-99.99,,2013-06-10 21:34:00,
2013-06-10 14:43:00,59.0,-99.9,-100.00,NE,45,17.0,26.0,-999,-99.99,,,-99.99,,2013-06-10 21:43:00,
2013-06-10 14:53:00,60.0,-99.9,-100.00,NE,45,20.0,26.0,-999,-99.99,,,-99.99,,2013-06-10 21:53:00,
2013-06-10 15:03:00,60.0,-99.9,-100.00,NE,45,19.0,24.0,-999,-99.99,,,-99.99,,2013-06-10 22:03:00,
2013-06-10 15:13:00,60.0,-99.9,-100.00,NE,45,19.0,24.0,-999,-99.99,,,-99.99,,2013-06-10 22:13:00,
2013-06-10 15:23:00,61.0,-99.9,-100.00,NE,45,19.0,24.0,-999,-99.99,,,-99.99,,2013-06-10 22:23:00,
2013-06-10 15:33:00,59.0,-99.9,-100.00,NE,45,15.0,24.0,-999,-99.99,,,-99.99,,2013-06-10 22:33:00,
2013-06-10 15:42:00,59.0,-99.9,-100.00,NE,45,15.0,24.0,-999,-99.99,,,-99.99,,2013-06-10 22:42:00,
2013-06-10 15:53:00,60.0,-99.9,-100.00,NE,45,20.0,25.0,-999,-99.99,,,-99.99,,2013-06-10 22:53:00,
2013-06-10 16:03:00,60.0,-99.9,-100.00,NE,45,15.0,25.0,-999,-99.99,,,-99.99,,2013-06-10 23:03:00,
2013-06-10 16:12:00,60.0,-99.9,-100.00,NE,45,15.0,25.0,-999,-99.99,,,-99.99,,2013-06-10 23:12:00,
2013-06-10 16:22:00,60.0,-99.9,-100.00,NE,45,12.0,24.0,-999,-99.99,,,-99.99,,2013-06-10 23:22:00,
2013-06-10 16:32:00,60.0,-99.9,-100.00,NE,45,12.0,20.0,-999,-99.99,,,-99.99,,2013-06-10 23:32:00,
2013-06-10 16:42:00,60.0,-99.9,-100.00,NE,45,12.0,20.0,-999,-99.99,,,-99.99,,2013-06-10 23:42:00,
2013-06-10 16:52:00,60.0,-99.9,-100.00,NE,45,10.0,20.0,-999,-99.99,,,-99.99,,2013-06-10 23:52:00,
2013-06-10 17:02:00,59.0,-99.9,-100.00,NE,45,12.0,21.0,-999,-99.99,,,-99.99,,2013-06-11 00:02:00,
2013-06-10 17:13:00,59.0,-99.9,-100.00,NE,45,12.0,21.0,-999,-99.99,,,-99.99,,2013-06-11 00:13:00,
2013-06-10 17:22:00,60.0,-99.9,-100.00,NE,45,11.0,21.0,-999,-99.99,,,-99.99,,2013-06-11 00:22:00,
2013-06-10 17:32:00,60.0,-99.9,-100.00,NE,45,13.0,21.0,-999,-99.99,,,-99.99,,2013-06-11 00:32:00,
2013-06-10 17:43:00,60.0,-99.9,-100.00,NE,45,13.0,21.0,-999,-99.99,,,-99.99,,2013-06-11 00:43:00,
2013-06-10 17:52:00,59.0,-99.9,-100.00,NE,45,14.0,20.0,-999,-99.99,,,-99.99,,2013-06-11 00:52:00,
2013-06-10 18:02:00,59.0,-99.9,-100.00,NE,45,10.0,20.0,-999,-99.99,,,-99.99,,2013-06-11 01:02:00,
2013-06-10 18:12:00,59.0,-99.9,-100.00,NE,45,10.0,20.0,-999,-99.99,,,-99.99,,2013-06-11 01:12:00,
2013-06-10 18:22:00,58.0,-99.9,-100.00,NE,45,10.0,20.0,-999,-99.99,,,-99.99,,2013-06-11 01:22:00,
2013-06-10 18:33:00,58.0,-99.9,-100.00,NE,45,10.0,19.0,-999,-99.99,,,-99.99,,2013-06-11 01:33:00,
2013-06-10 18:42:00,58.0,-99.9,-100.00,NE,45,10.0,19.0,-999,-99.99,,,-99.99,,2013-06-11 01:42:00,
2013-06-10 18:53:00,58.0,-99.9,-100.00,NE,45,11.0,19.0,-999,-99.99,,,-99.99,,2013-06-11 01:53:00,
2013-06-10 19:03:00,57.0,-99.9,-100.00,NE,45,10.0,19.0,-999,-99.99,,,-99.99,,2013-06-11 02:03:00,
2013-06-10 19:12:00,57.0,-99.9,-100.00,NE,45,10.0,19.0,-999,-99.99,,,-99.99,,2013-06-11 02:12:00,
2013-06-10 19:22:00,57.0,-99.9,-100.00,NE,45,9.0,17.0,-999,-99.99,,,-99.99,,2013-06-11 02:22:00,
2013-06-10 19:32:00,57.0,-99.9,-100.00,NE,45,9.0,17.0,-999,-99.99,,,-99.99,,2013-06-11 02:32:00,
2013-06-10 19:43:00,57.0,-99.9,-100.00,NE,45,9.0,17.0,-999,-99.99,,,-99.99,,2013-06-11 02:43:00,
2013-06-10 19:52:00,56.0,-99.9,-100.00,NE,45,8.0,16.0,-999,-99.99,,,-99.99,,2013-06-11 02:52:00,
2013-06-10 20:03:00,56.0,-99.9,-100.00,NE,45,8.0,16.0,-999,-99.99,,,-99.99,,2013-06-11 03:03:00,
2013-06-10 20:13:00,56.0,-99.9,-100.00,NE,45,8.0,16.0,-999,-99.99,,,-99.99,,2013-06-11 03:13:00,
2013-06-10 20:22:00,55.0,-99.9,-100.00,NE,45,9.0,15.0,-999,-99.99,,,-99.99,,2013-06-11 03:22:00,
2013-06-10 20:33:00,55.0,-99.9,-100.00,NE,45,8.0,15.0,-999,-99.99,,,-99.99,,2013-06-11 03:33:00,
2013-06-10 20:43:00,55.0,-99.9,-100.00,NE,45,8.0,15.0,-999,-99.99,,,-99.99,,2013-06-11 03:43:00,
2013-06-10 20:53:00,55.0,-99.9,-100.00,NE,45,7.0,14.0,-999,-99.99,,,-99.99,,2013-06-11 03:53:00,
2013-06-10 21:03:00,54.0,-99.9,-100.00,NE,45,6.0,14.0,-999,-99.99,,,-99.99,,2013-06-11 04:03:00,
2013-06-10 21:13:00,54.0,-99.9,-100.00,NE,45,6.0,14.0,-999,-99.99,,,-99.99,,2013-06-11 04:13:00,
2013-06-10 21:23:00,54.0,-99.9,-100.00,NE,45,8.0,15.0,-999,-99.99,,,-99.99,,2013-06-11 04:23:00,
2013-06-10 21:34:00,54.0,-99.9,-100.00,NE,45,9.0,15.0,-999,-99.99,,,-99.99,,2013-06-11 04:34:00,
2013-06-10 21:43:00,54.0,-99.9,-100.00,NE,45,9.0,15.0,-999,-99.99,,,-99.99,,2013-06-11 04:43:00,
2013-06-10 21:53:00,54.0,-99.9,-100.00,NE,45,8.0,13.0,-999,-99.99,,,-99.99,,2013-06-11 04:53:00,
2013-06-10 22:02:00,53.0,-99.9,-100.00,NE,45,7.0,13.0,-999,-99.99,,,-99.99,,2013-06-11 05:02:00,
2013-06-10 22:12:00,53.0,-99.9,-100.00,NE,45,7.0,13.0,-999,-99.99,,,-99.99,,2013-06-11 05:12:00,
2013-06-10 22:22:00,53.0,-99.9,-100.00,NE,45,8.0,13.0,-999,-99.99,,,-99.99,,2013-06-11 05:22:00,
2013-06-10 22:32:00,53.0,-99.9,-100.00,NE,45,6.0,13.0,-999,-99.99,,,-99.99,,2013-06-11 05:32:00,
2013-06-10 22:42:00,53.0,-99.9,-100.00,NE,45,6.0,13.0,-999,-99.99,,,-99.99,,2013-06-11 05:42:00,
2013-06-10 22:52:00,53.0,-99.9,-100.00,NE,45,6.0,9.0,-999,-99.99,,,-99.99,,2013-06-11 05:52:00,
2013-06-10 23:02:00,53.0,-99.9,-100.00,NE,45,4.0,8.0,-999,-99.99,,,-99.99,,2013-06-11 06:02:00,
2013-06-10 23:12:00,53.0,-99.9,-100.00,NE,45,4.0,8.0,-999,-99.99,,,-99.99,,2013-06-11 06:12:00,
2013-06-10 23:22:00,52.0,-99.9,-100.00,North,0,5.0,8.0,-999,-99.99,,,-99.99,,2013-06-11 06:22:00,
2013-06-10 23:32:00,53.0,-99.9,-100.00,NE,45,4.0,8.0,-999,-99.99,,,-99.99,,2013-06-11 06:32:00,
2013-06-10 23:42:00,53.0,-99.9,-100.00,NE,45,4.0,8.0,-999,-99.99,,,-99.99,,2013-06-11 06:42:00,
2013-06-10 23:52:00,53.0,-99.9,-100.00,NE,45,4.0,8.0,-999,-99.99,,,-99.99,,2013-06-11 06:52:00,